Year,Month,Day,Hour,Minute,Value (Times are PST for temperature in C)
2015,02,24,00,00,3.50
2015,02,24,00,01,3.50
2015,02,24,00,02,3.50
2015,02,24,00,03,3.50
2015,02,24,00,04,3.50
2015,02,24,00,05,3.40
2015,02,24,00,06,3.40
2015,02,24,00,07,3.40
2015,02,24,00,08,3.40
2015,02,24,00,09,3.40
2015,02,24,00,10,3.30
2015,02,24,00,11,3.30
2015,02,24,00,12,3.30
2015,02,24,00,13,3.30
2015,02,24,00,14,3.30
2015,02,24,00,15,3.20
2015,02,24,00,16,3.20
2015,02,24,00,17,3.20
2015,02,24,00,18,3.20
2015,02,24,00,19,3.20
2015,02,24,00,20,3.10
2015,02,24,00,21,3.10
2015,02,24,00,22,3.10
2015,02,24,00,23,3.10
2015,02,24,00,24,3.10
2015,02,24,00,25,3.10
2015,02,24,00,26,3.00
2015,02,24,00,27,3.00
2015,02,24,00,28,3.00
2015,02,24,00,29,2.90
2015,02,24,00,30,2.90
2015,02,24,00,31,2.90
2015,02,24,00,32,2.90
2015,02,24,00,33,2.90
2015,02,24,00,34,2.80
2015,02,24,00,35,2.80
2015,02,24,00,36,2.80
2015,02,24,00,37,2.80
2015,02,24,00,38,2.80
2015,02,24,00,39,2.80
2015,02,24,00,40,2.80
2015,02,24,00,41,2.80
2015,02,24,00,42,2.80
2015,02,24,00,43,2.70
2015,02,24,00,44,2.70
2015,02,24,00,45,2.70
2015,02,24,00,46,2.70
2015,02,24,00,47,2.70
2015,02,24,00,48,2.70
2015,02,24,00,49,2.70
2015,02,24,00,50,2.60
2015,02,24,00,51,2.60
2015,02,24,00,52,2.60
2015,02,24,00,53,2.60
2015,02,24,00,54,2.60
2015,02,24,00,55,2.60
2015,02,24,00,56,2.60
2015,02,24,00,57,2.60
2015,02,24,00,58,2.60
2015,02,24,01,00,2.50
2015,02,24,01,01,2.50
2015,02,24,01,03,2.50
2015,02,24,01,05,2.50
2015,02,24,01,06,2.50
2015,02,24,01,07,2.50
2015,02,24,01,08,2.40
2015,02,24,01,09,2.40
2015,02,24,01,10,2.40
2015,02,24,01,11,2.40
2015,02,24,01,12,2.40
2015,02,24,01,13,2.40
2015,02,24,01,14,2.40
2015,02,24,01,15,2.40
2015,02,24,01,16,2.40
2015,02,24,01,17,2.40
2015,02,24,01,18,2.40
2015,02,24,01,20,2.40
2015,02,24,01,21,2.40
2015,02,24,01,22,2.40
2015,02,24,01,23,2.40
2015,02,24,01,24,2.40
2015,02,24,01,25,2.40
2015,02,24,01,26,2.40
2015,02,24,01,27,2.40
2015,02,24,01,28,2.40
2015,02,24,01,29,2.40
2015,02,24,01,30,2.40
2015,02,24,01,31,2.40
2015,02,24,01,32,2.40
2015,02,24,01,33,2.40
2015,02,24,01,34,2.40
2015,02,24,01,35,2.40
2015,02,24,01,36,2.40
2015,02,24,01,37,2.40
2015,02,24,01,38,2.40
2015,02,24,01,39,2.40
2015,02,24,01,40,2.30
2015,02,24,01,41,2.30
2015,02,24,01,42,2.30
2015,02,24,01,43,2.30
2015,02,24,01,44,2.30
2015,02,24,01,45,2.30
2015,02,24,01,46,2.30
2015,02,24,01,47,2.30
2015,02,24,01,48,2.30
2015,02,24,01,50,2.30
2015,02,24,01,51,2.20
2015,02,24,01,52,2.20
2015,02,24,01,53,2.30
2015,02,24,01,54,2.30
2015,02,24,01,55,2.30
2015,02,24,01,56,2.30
2015,02,24,01,57,2.20
2015,02,24,01,58,2.20
2015,02,24,01,59,2.20
2015,02,24,02,00,2.20
2015,02,24,02,01,2.20
2015,02,24,02,02,2.20
2015,02,24,02,03,2.20
2015,02,24,02,04,2.20
2015,02,24,02,05,2.20
2015,02,24,02,06,2.20
2015,02,24,02,07,2.20
2015,02,24,02,08,2.20
2015,02,24,02,09,2.20
2015,02,24,02,10,2.20
2015,02,24,02,11,2.20
2015,02,24,02,12,2.10
2015,02,24,02,13,2.10
2015,02,24,02,14,2.10
2015,02,24,02,15,2.10
2015,02,24,02,16,2.10
2015,02,24,02,17,2.10
2015,02,24,02,18,2.10
2015,02,24,02,19,2.10
2015,02,24,02,20,2.10
2015,02,24,02,21,2.10
2015,02,24,02,22,2.10
2015,02,24,02,23,2.10
2015,02,24,02,24,2.10
2015,02,24,02,25,2.00
2015,02,24,02,26,2.10
2015,02,24,02,27,2.00
2015,02,24,02,28,2.00
2015,02,24,02,29,2.00
2015,02,24,02,30,2.00
2015,02,24,02,31,2.00
2015,02,24,02,33,1.90
2015,02,24,02,34,1.90
2015,02,24,02,35,1.90
2015,02,24,02,36,1.90
2015,02,24,02,37,1.90
2015,02,24,02,38,1.90
2015,02,24,02,39,1.90
2015,02,24,02,40,1.90
2015,02,24,02,41,1.80
2015,02,24,02,42,1.80
2015,02,24,02,43,1.80
2015,02,24,02,44,1.80
2015,02,24,02,45,1.80
2015,02,24,02,46,1.80
2015,02,24,02,47,1.80
2015,02,24,02,48,1.80
2015,02,24,02,49,1.80
2015,02,24,02,50,1.80
2015,02,24,02,51,1.80
2015,02,24,02,52,1.80
2015,02,24,02,54,1.80
2015,02,24,02,55,1.80
2015,02,24,02,56,1.80
2015,02,24,02,57,1.80
2015,02,24,02,58,1.80
2015,02,24,02,59,1.80
2015,02,24,03,00,1.80
2015,02,24,03,01,1.80
2015,02,24,03,02,1.80
2015,02,24,03,03,1.80
2015,02,24,03,04,1.80
2015,02,24,03,05,1.80
2015,02,24,03,06,1.80
2015,02,24,03,07,1.80
2015,02,24,03,08,1.80
2015,02,24,03,09,1.80
2015,02,24,03,11,1.80
2015,02,24,03,12,1.80
2015,02,24,03,13,1.80
2015,02,24,03,14,1.80
2015,02,24,03,15,1.80
2015,02,24,03,16,1.80
2015,02,24,03,17,1.80
2015,02,24,03,18,1.80
2015,02,24,03,19,1.80
2015,02,24,03,20,1.70
2015,02,24,03,21,1.80
2015,02,24,03,23,1.70
2015,02,24,03,24,1.70
2015,02,24,03,25,1.70
2015,02,24,03,26,1.70
2015,02,24,03,27,1.70
2015,02,24,03,28,1.70
2015,02,24,03,29,1.70
2015,02,24,03,30,1.70
2015,02,24,03,31,1.70
2015,02,24,03,32,1.70
2015,02,24,03,34,1.60
2015,02,24,03,35,1.60
2015,02,24,03,36,1.60
2015,02,24,03,37,1.60
2015,02,24,03,38,1.60
2015,02,24,03,39,1.60
2015,02,24,03,40,1.60
2015,02,24,03,41,1.50
2015,02,24,03,42,1.50
2015,02,24,03,43,1.50
2015,02,24,03,44,1.50
2015,02,24,03,45,1.50
2015,02,24,03,46,1.40
2015,02,24,03,47,1.40
2015,02,24,03,48,1.40
2015,02,24,03,49,1.40
2015,02,24,03,50,1.40
2015,02,24,03,51,1.40
2015,02,24,03,52,1.40
2015,02,24,03,53,1.40
2015,02,24,03,54,1.40
2015,02,24,03,55,1.40
2015,02,24,03,56,1.40
2015,02,24,03,57,1.40
2015,02,24,03,58,1.40
2015,02,24,03,59,1.40
2015,02,24,04,00,1.40
2015,02,24,04,01,1.40
2015,02,24,04,02,1.40
2015,02,24,04,03,1.40
2015,02,24,04,04,1.40
2015,02,24,04,05,1.40
2015,02,24,04,06,1.40
2015,02,24,04,07,1.40
2015,02,24,04,08,1.40
2015,02,24,04,09,1.40
2015,02,24,04,10,1.40
2015,02,24,04,11,1.40
2015,02,24,04,12,1.40
2015,02,24,04,13,1.40
2015,02,24,04,14,1.40
2015,02,24,04,15,1.40
2015,02,24,04,17,1.40
2015,02,24,04,18,1.40
2015,02,24,04,19,1.50
2015,02,24,04,20,1.50
2015,02,24,04,21,1.50
2015,02,24,04,22,1.50
2015,02,24,04,23,1.50
2015,02,24,04,24,1.60
2015,02,24,04,25,1.60
2015,02,24,04,26,1.60
2015,02,24,04,27,1.60
2015,02,24,04,28,1.60
2015,02,24,04,29,1.70
2015,02,24,04,30,1.70
2015,02,24,04,31,1.70
2015,02,24,04,32,1.70
2015,02,24,04,33,1.70
2015,02,24,04,34,1.70
2015,02,24,04,35,1.70
2015,02,24,04,36,1.70
2015,02,24,04,37,1.70
2015,02,24,04,38,1.70
2015,02,24,04,39,1.70
2015,02,24,04,40,1.70
2015,02,24,04,41,1.70
2015,02,24,04,42,1.70
2015,02,24,04,43,1.70
2015,02,24,04,44,1.70
2015,02,24,04,45,1.70
2015,02,24,04,46,1.70
2015,02,24,04,47,1.80
2015,02,24,04,48,1.70
2015,02,24,04,49,1.80
2015,02,24,04,50,1.80
2015,02,24,04,51,1.80
2015,02,24,04,52,1.80
2015,02,24,04,53,1.80
2015,02,24,04,54,1.80
2015,02,24,04,55,1.80
2015,02,24,04,56,1.80
2015,02,24,04,57,1.80
2015,02,24,04,58,1.80
2015,02,24,04,59,1.80
2015,02,24,05,00,1.80
2015,02,24,05,01,1.80
2015,02,24,05,02,1.80
2015,02,24,05,03,1.80
2015,02,24,05,04,1.80
2015,02,24,05,05,1.80
2015,02,24,05,06,1.80
2015,02,24,05,07,1.80
2015,02,24,05,08,1.80
2015,02,24,05,10,1.80
2015,02,24,05,11,1.80
2015,02,24,05,12,1.90
2015,02,24,05,13,1.90
2015,02,24,05,14,1.90
2015,02,24,05,15,1.90
2015,02,24,05,16,1.90
2015,02,24,05,17,1.90
2015,02,24,05,18,1.90
2015,02,24,05,19,1.90
2015,02,24,05,20,1.90
2015,02,24,05,21,1.90
2015,02,24,05,22,1.90
2015,02,24,05,23,2.00
2015,02,24,05,24,2.00
2015,02,24,05,25,2.00
2015,02,24,05,26,2.00
2015,02,24,05,27,2.00
2015,02,24,05,28,2.00
2015,02,24,05,29,2.00
2015,02,24,05,30,2.00
2015,02,24,05,31,2.00
2015,02,24,05,32,2.00
2015,02,24,05,33,2.00
2015,02,24,05,34,2.00
2015,02,24,05,35,2.00
2015,02,24,05,36,2.00
2015,02,24,05,37,2.10
2015,02,24,05,38,2.10
2015,02,24,05,39,2.10
2015,02,24,05,40,2.10
2015,02,24,05,41,2.10
2015,02,24,05,42,2.10
2015,02,24,05,43,2.10
2015,02,24,05,44,2.10
2015,02,24,05,45,2.10
2015,02,24,05,46,2.10
2015,02,24,05,47,2.10
2015,02,24,05,48,2.10
2015,02,24,05,49,2.10
2015,02,24,05,50,2.10
2015,02,24,05,51,2.10
2015,02,24,05,52,2.10
2015,02,24,05,53,2.10
2015,02,24,05,55,2.10
2015,02,24,05,56,2.00
2015,02,24,05,57,2.10
2015,02,24,05,58,2.00
2015,02,24,05,59,2.00
2015,02,24,06,00,2.00
2015,02,24,06,01,2.00
2015,02,24,06,02,2.00
2015,02,24,06,03,2.00
2015,02,24,06,04,2.10
2015,02,24,06,05,2.10
2015,02,24,06,06,2.00
2015,02,24,06,07,2.00
2015,02,24,06,08,2.00
2015,02,24,06,09,2.00
2015,02,24,06,11,2.00
2015,02,24,06,12,2.00
2015,02,24,06,13,2.00
2015,02,24,06,14,2.00
2015,02,24,06,15,2.00
2015,02,24,06,16,2.00
2015,02,24,06,17,2.00
2015,02,24,06,18,2.00
2015,02,24,06,19,2.10
2015,02,24,06,20,2.10
2015,02,24,06,21,2.10
2015,02,24,06,22,2.10
2015,02,24,06,23,2.10
2015,02,24,06,24,2.10
2015,02,24,06,25,2.10
2015,02,24,06,26,2.10
2015,02,24,06,27,2.10
2015,02,24,06,28,2.10
2015,02,24,06,29,2.10
2015,02,24,06,30,2.10
2015,02,24,06,31,2.10
2015,02,24,06,32,2.10
2015,02,24,06,33,2.10
2015,02,24,06,34,2.10
2015,02,24,06,35,2.00
2015,02,24,06,36,2.00
2015,02,24,06,37,2.00
2015,02,24,06,38,2.00
2015,02,24,06,39,1.90
2015,02,24,06,40,1.90
2015,02,24,06,41,1.90
2015,02,24,06,42,1.90
2015,02,24,06,43,1.90
2015,02,24,06,44,1.90
2015,02,24,06,45,1.80
2015,02,24,06,46,1.80
2015,02,24,06,47,1.80
2015,02,24,06,48,1.80
2015,02,24,06,49,1.80
2015,02,24,06,50,1.80
2015,02,24,06,51,1.80
2015,02,24,06,52,1.80
2015,02,24,06,53,1.80
2015,02,24,06,54,1.80
2015,02,24,06,55,1.80
2015,02,24,06,56,1.80
2015,02,24,06,57,1.80
2015,02,24,06,58,1.80
2015,02,24,06,59,1.80
2015,02,24,07,00,1.80
2015,02,24,07,01,1.80
2015,02,24,07,02,1.80
2015,02,24,07,03,1.80
2015,02,24,07,04,1.80
2015,02,24,07,05,1.80
2015,02,24,07,06,1.80
2015,02,24,07,07,1.80
2015,02,24,07,08,1.80
2015,02,24,07,09,1.80
2015,02,24,07,10,1.80
2015,02,24,07,11,1.80
2015,02,24,07,12,1.80
2015,02,24,07,13,1.80
2015,02,24,07,14,1.80
2015,02,24,07,15,1.80
2015,02,24,07,16,1.80
2015,02,24,07,17,1.80
2015,02,24,07,18,1.80
2015,02,24,07,19,1.80
2015,02,24,07,20,1.80
2015,02,24,07,21,1.80
2015,02,24,07,22,1.90
2015,02,24,07,23,1.80
2015,02,24,07,24,1.90
2015,02,24,07,25,1.90
2015,02,24,07,26,1.90
2015,02,24,07,27,1.90
2015,02,24,07,28,1.90
2015,02,24,07,29,1.90
2015,02,24,07,30,1.90
2015,02,24,07,31,1.90
2015,02,24,07,32,1.90
2015,02,24,07,33,1.90
2015,02,24,07,34,1.90
2015,02,24,07,35,1.90
2015,02,24,07,36,1.90
2015,02,24,07,38,1.90
2015,02,24,07,39,2.00
2015,02,24,07,40,2.00
2015,02,24,07,41,2.00
2015,02,24,07,42,2.00
2015,02,24,07,43,2.10
2015,02,24,07,44,2.10
2015,02,24,07,45,2.00
2015,02,24,07,46,2.00
2015,02,24,07,47,2.00
2015,02,24,07,48,2.00
2015,02,24,07,49,2.00
2015,02,24,07,51,1.90
2015,02,24,07,52,1.90
2015,02,24,07,53,1.90
2015,02,24,07,54,1.90
2015,02,24,07,55,1.90
2015,02,24,07,56,1.90
2015,02,24,07,57,1.90
2015,02,24,07,58,1.90
2015,02,24,08,00,1.90
2015,02,24,08,01,1.90
2015,02,24,08,02,1.90
2015,02,24,08,03,1.90
2015,02,24,08,04,1.90
2015,02,24,08,05,1.90
2015,02,24,08,06,1.80
2015,02,24,08,07,1.80
2015,02,24,08,08,1.80
2015,02,24,08,09,1.80
2015,02,24,08,10,1.80
2015,02,24,08,11,1.90
2015,02,24,08,12,1.90
2015,02,24,08,13,1.80
2015,02,24,08,14,1.90
2015,02,24,08,15,1.90
2015,02,24,08,16,1.90
2015,02,24,08,17,1.90
2015,02,24,08,18,1.90
2015,02,24,08,19,1.90
2015,02,24,08,20,1.90
2015,02,24,08,21,1.90
2015,02,24,08,22,1.90
2015,02,24,08,23,1.90
2015,02,24,08,24,1.90
2015,02,24,08,25,1.90
2015,02,24,08,26,1.90
2015,02,24,08,27,1.90
2015,02,24,08,28,1.90
2015,02,24,08,29,1.90
2015,02,24,08,30,1.90
2015,02,24,08,31,1.90
2015,02,24,08,32,1.90
2015,02,24,08,33,1.90
2015,02,24,08,34,1.90
2015,02,24,08,35,1.90
2015,02,24,08,36,2.00
2015,02,24,08,38,2.00
2015,02,24,08,39,2.00
2015,02,24,08,40,2.00
2015,02,24,08,41,2.00
2015,02,24,08,42,2.00
2015,02,24,08,43,2.00
2015,02,24,08,44,2.00
2015,02,24,08,45,2.10
2015,02,24,08,46,2.10
2015,02,24,08,47,2.10
2015,02,24,08,48,2.10
2015,02,24,08,49,2.10
2015,02,24,08,50,2.10
2015,02,24,08,51,2.10
2015,02,24,08,52,2.10
2015,02,24,08,53,2.10
2015,02,24,08,54,2.10
2015,02,24,08,55,2.10
2015,02,24,08,56,2.10
2015,02,24,08,57,2.10
2015,02,24,08,58,2.10
2015,02,24,08,59,2.10
2015,02,24,09,00,2.10
2015,02,24,09,01,2.10
2015,02,24,09,02,2.10
2015,02,24,09,03,2.10
2015,02,24,09,04,2.10
2015,02,24,09,05,2.10
2015,02,24,09,06,2.10
2015,02,24,09,07,2.10
2015,02,24,09,08,2.10
2015,02,24,09,09,2.10
2015,02,24,09,10,2.10
2015,02,24,09,11,2.10
2015,02,24,09,13,2.20
2015,02,24,09,14,2.20
2015,02,24,09,15,2.20
2015,02,24,09,16,2.20
2015,02,24,09,17,2.20
2015,02,24,09,18,2.20
2015,02,24,09,19,2.20
2015,02,24,09,20,2.20
2015,02,24,09,21,2.20
2015,02,24,09,22,2.20
2015,02,24,09,23,2.20
2015,02,24,09,24,2.20
2015,02,24,09,25,2.20
2015,02,24,09,26,2.20
2015,02,24,09,27,2.20
2015,02,24,09,28,2.20
2015,02,24,09,29,2.20
2015,02,24,09,30,2.20
2015,02,24,09,31,2.20
2015,02,24,09,32,2.30
2015,02,24,09,33,2.30
2015,02,24,09,34,2.30
2015,02,24,09,35,2.30
2015,02,24,09,36,2.30
2015,02,24,09,37,2.30
2015,02,24,09,38,2.30
2015,02,24,09,39,2.30
2015,02,24,09,40,2.30
2015,02,24,09,41,2.30
2015,02,24,09,42,2.40
2015,02,24,09,43,2.40
2015,02,24,09,44,2.40
2015,02,24,09,45,2.40
2015,02,24,09,46,2.40
2015,02,24,09,47,2.40
2015,02,24,09,48,2.50
2015,02,24,09,49,2.50
2015,02,24,09,50,2.50
2015,02,24,09,51,2.50
2015,02,24,09,52,2.50
2015,02,24,09,53,2.50
2015,02,24,09,54,2.50
2015,02,24,09,55,2.50
2015,02,24,09,56,2.50
2015,02,24,09,57,2.50
2015,02,24,09,58,2.40
2015,02,24,09,59,2.50
2015,02,24,10,00,2.40
2015,02,24,10,01,2.50
2015,02,24,10,02,2.50
2015,02,24,10,03,2.50
2015,02,24,10,04,2.50
2015,02,24,10,05,2.50
2015,02,24,10,06,2.50
2015,02,24,10,07,2.60
2015,02,24,10,08,2.60
2015,02,24,10,09,2.60
2015,02,24,10,10,2.60
2015,02,24,10,11,2.60
2015,02,24,10,12,2.70
2015,02,24,10,13,2.70
2015,02,24,10,14,2.70
2015,02,24,10,15,2.70
2015,02,24,10,16,2.70
2015,02,24,10,17,2.80
2015,02,24,10,18,2.80
2015,02,24,10,19,2.80
2015,02,24,10,20,2.90
2015,02,24,10,21,2.90
2015,02,24,10,22,2.90
2015,02,24,10,23,3.00
2015,02,24,10,25,2.90
2015,02,24,10,26,2.90
2015,02,24,10,27,2.90
2015,02,24,10,28,3.00
2015,02,24,10,29,3.00
2015,02,24,10,30,3.00
2015,02,24,10,31,3.00
2015,02,24,10,32,3.00
2015,02,24,10,33,3.10
2015,02,24,10,34,3.10
2015,02,24,10,35,3.10
2015,02,24,10,36,3.10
2015,02,24,10,37,3.10
2015,02,24,10,38,3.10
2015,02,24,10,39,3.20
2015,02,24,10,40,3.20
2015,02,24,10,41,3.20
2015,02,24,10,42,3.20
2015,02,24,10,43,3.20
2015,02,24,10,44,3.20
2015,02,24,10,45,3.20
2015,02,24,10,46,3.20
2015,02,24,10,47,3.20
2015,02,24,10,48,3.20
2015,02,24,10,49,3.10
2015,02,24,10,50,3.10
2015,02,24,10,51,3.20
2015,02,24,10,52,3.20
2015,02,24,10,53,3.20
2015,02,24,10,54,3.20
2015,02,24,10,56,3.20
2015,02,24,10,57,3.20
2015,02,24,10,58,3.20
2015,02,24,10,59,3.30
2015,02,24,11,00,3.30
2015,02,24,11,01,3.30
2015,02,24,11,02,3.30
2015,02,24,11,03,3.30
2015,02,24,11,04,3.30
2015,02,24,11,05,3.30
2015,02,24,11,06,3.40
2015,02,24,11,07,3.40
2015,02,24,11,08,3.40
2015,02,24,11,09,3.50
2015,02,24,11,10,3.50
2015,02,24,11,11,3.50
2015,02,24,11,12,3.50
2015,02,24,11,13,3.40
2015,02,24,11,14,3.40
2015,02,24,11,15,3.40
2015,02,24,11,16,3.40
2015,02,24,11,17,3.40
2015,02,24,11,18,3.40
2015,02,24,11,19,3.50
2015,02,24,11,20,3.50
2015,02,24,11,21,3.50
2015,02,24,11,22,3.60
2015,02,24,11,23,3.60
2015,02,24,11,24,3.60
2015,02,24,11,25,3.70
2015,02,24,11,26,3.70
2015,02,24,11,27,3.80
2015,02,24,11,28,3.80
2015,02,24,11,29,3.80
2015,02,24,11,30,3.80
2015,02,24,11,31,3.80
2015,02,24,11,32,3.80
2015,02,24,11,33,3.90
2015,02,24,11,34,3.90
2015,02,24,11,35,3.90
2015,02,24,11,36,3.90
2015,02,24,11,37,4.00
2015,02,24,11,38,4.00
2015,02,24,11,39,4.10
2015,02,24,11,40,4.10
2015,02,24,11,41,4.10
2015,02,24,11,42,4.20
2015,02,24,11,43,4.20
2015,02,24,11,44,4.30
2015,02,24,11,45,4.30
2015,02,24,11,46,4.40
2015,02,24,11,47,4.40
2015,02,24,11,48,4.40
2015,02,24,11,49,4.50
2015,02,24,11,50,4.60
2015,02,24,11,51,4.70
2015,02,24,11,52,4.70
2015,02,24,11,53,4.80
2015,02,24,11,54,4.90
2015,02,24,11,55,4.90
2015,02,24,11,56,5.00
2015,02,24,11,57,5.10
2015,02,24,11,58,5.10
2015,02,24,11,59,5.20
2015,02,24,12,00,5.20
2015,02,24,12,01,5.30
2015,02,24,12,02,5.40
2015,02,24,12,03,5.40
2015,02,24,12,04,5.50
2015,02,24,12,05,5.60
2015,02,24,12,06,5.60
2015,02,24,12,07,5.70
2015,02,24,12,08,5.80
2015,02,24,12,09,5.80
2015,02,24,12,10,5.90
2015,02,24,12,11,5.90
2015,02,24,12,12,6.10
2015,02,24,12,13,6.10
2015,02,24,12,14,6.20
2015,02,24,12,15,6.30
2015,02,24,12,16,6.40
2015,02,24,12,17,6.50
2015,02,24,12,18,6.50
2015,02,24,12,19,6.60
2015,02,24,12,20,6.60
2015,02,24,12,21,6.60
2015,02,24,12,22,6.60
2015,02,24,12,23,6.50
2015,02,24,12,24,6.40
2015,02,24,12,25,6.40
2015,02,24,12,26,6.30
2015,02,24,12,27,6.30
2015,02,24,12,28,6.30
2015,02,24,12,29,6.30
2015,02,24,12,30,6.40
2015,02,24,12,31,6.40
2015,02,24,12,32,6.40
2015,02,24,12,33,6.50
2015,02,24,12,34,6.60
2015,02,24,12,35,6.70
2015,02,24,12,36,6.70
2015,02,24,12,37,6.80
2015,02,24,12,38,6.90
2015,02,24,12,39,7.00
2015,02,24,12,40,7.10
2015,02,24,12,41,7.10
2015,02,24,12,42,7.10
2015,02,24,12,43,7.20
2015,02,24,12,44,7.20
2015,02,24,12,45,7.40
2015,02,24,12,46,7.50
2015,02,24,12,47,7.60
2015,02,24,12,48,7.70
2015,02,24,12,49,7.70
2015,02,24,12,50,7.70
2015,02,24,12,51,7.80
2015,02,24,12,52,7.80
2015,02,24,12,53,7.90
2015,02,24,12,54,8.00
2015,02,24,12,55,8.10
2015,02,24,12,56,8.10
2015,02,24,12,57,8.20
2015,02,24,12,58,8.20
2015,02,24,12,59,8.30
2015,02,24,13,00,8.40
2015,02,24,13,01,8.60
2015,02,24,13,02,8.70
2015,02,24,13,03,8.80
2015,02,24,13,04,8.90
2015,02,24,13,05,9.10
2015,02,24,13,06,9.20
2015,02,24,13,07,9.30
2015,02,24,13,08,9.40
2015,02,24,13,09,9.40
2015,02,24,13,10,9.60
2015,02,24,13,11,9.60
2015,02,24,13,12,9.70
2015,02,24,13,13,9.80
2015,02,24,13,14,9.80
2015,02,24,13,15,9.90
2015,02,24,13,16,10.00
2015,02,24,13,17,10.10
2015,02,24,13,18,10.20
2015,02,24,13,19,10.20
2015,02,24,13,20,10.30
2015,02,24,13,21,10.40
2015,02,24,13,22,10.50
2015,02,24,13,23,10.60
2015,02,24,13,24,10.60
2015,02,24,13,25,10.70
2015,02,24,13,26,10.70
2015,02,24,13,27,10.80
2015,02,24,13,28,10.80
2015,02,24,13,29,10.80
2015,02,24,13,30,10.90
2015,02,24,13,31,10.90
2015,02,24,13,32,11.00
2015,02,24,13,33,11.10
2015,02,24,13,34,11.10
2015,02,24,13,35,11.20
2015,02,24,13,36,11.20
2015,02,24,13,37,11.30
2015,02,24,13,38,11.30
2015,02,24,13,39,11.30
2015,02,24,13,40,11.30
2015,02,24,13,41,11.30
2015,02,24,13,42,11.30
2015,02,24,13,43,11.30
2015,02,24,13,44,11.30
2015,02,24,13,45,11.30
2015,02,24,13,46,11.20
2015,02,24,13,47,11.20
2015,02,24,13,48,11.20
2015,02,24,13,49,11.20
2015,02,24,13,50,11.10
2015,02,24,13,51,11.10
2015,02,24,13,52,11.10
2015,02,24,13,53,11.10
2015,02,24,13,54,11.10
2015,02,24,13,55,11.10
2015,02,24,13,56,11.20
2015,02,24,13,57,11.20
2015,02,24,13,58,11.30
2015,02,24,13,59,11.40
2015,02,24,14,00,11.40
2015,02,24,14,01,11.30
2015,02,24,14,02,11.30
2015,02,24,14,03,11.20
2015,02,24,14,04,11.30
2015,02,24,14,05,11.30
2015,02,24,14,06,11.40
2015,02,24,14,07,11.40
2015,02,24,14,08,11.50
2015,02,24,14,09,11.60
2015,02,24,14,10,11.70
2015,02,24,14,11,11.70
2015,02,24,14,12,11.80
2015,02,24,14,13,11.80
2015,02,24,14,14,11.80
2015,02,24,14,15,11.80
2015,02,24,14,16,11.80
2015,02,24,14,17,11.90
2015,02,24,14,18,11.90
2015,02,24,14,19,11.80
2015,02,24,14,20,11.80
2015,02,24,14,21,11.80
2015,02,24,14,22,11.90
2015,02,24,14,23,11.90
2015,02,24,14,24,12.10
2015,02,24,14,25,12.20
2015,02,24,14,26,12.20
2015,02,24,14,27,12.20
2015,02,24,14,28,12.30
2015,02,24,14,29,12.30
2015,02,24,14,30,12.30
2015,02,24,14,31,12.30
2015,02,24,14,32,12.20
2015,02,24,14,33,12.20
2015,02,24,14,34,12.20
2015,02,24,14,35,12.10
2015,02,24,14,36,12.00
2015,02,24,14,37,11.90
2015,02,24,14,38,11.80
2015,02,24,14,39,11.80
2015,02,24,14,40,11.80
2015,02,24,14,41,11.80
2015,02,24,14,42,11.70
2015,02,24,14,43,11.70
2015,02,24,14,44,11.70
2015,02,24,14,45,11.70
2015,02,24,14,46,11.70
2015,02,24,14,47,11.80
2015,02,24,14,48,11.90
2015,02,24,14,49,11.90
2015,02,24,14,50,12.00
2015,02,24,14,51,12.10
2015,02,24,14,52,12.10
2015,02,24,14,53,12.20
2015,02,24,14,54,12.30
2015,02,24,14,55,12.30
2015,02,24,14,56,12.30
2015,02,24,14,57,12.30
2015,02,24,14,58,12.30
2015,02,24,14,59,12.30
2015,02,24,15,00,12.30
2015,02,24,15,01,12.30
2015,02,24,15,02,12.30
2015,02,24,15,03,12.30
2015,02,24,15,04,12.30
2015,02,24,15,05,12.30
2015,02,24,15,06,12.30
2015,02,24,15,07,12.30
2015,02,24,15,08,12.20
2015,02,24,15,09,12.20
2015,02,24,15,10,12.20
2015,02,24,15,11,12.20
2015,02,24,15,12,12.30
2015,02,24,15,13,12.30
2015,02,24,15,14,12.30
2015,02,24,15,15,12.40
2015,02,24,15,16,12.40
2015,02,24,15,17,12.40
2015,02,24,15,18,12.40
2015,02,24,15,19,12.40
2015,02,24,15,20,12.40
2015,02,24,15,21,12.40
2015,02,24,15,22,12.40
2015,02,24,15,23,12.40
2015,02,24,15,24,12.40
2015,02,24,15,25,12.40
2015,02,24,15,26,12.40
2015,02,24,15,27,12.40
2015,02,24,15,28,12.40
2015,02,24,15,29,12.50
2015,02,24,15,30,12.50
2015,02,24,15,31,12.50
2015,02,24,15,32,12.40
2015,02,24,15,33,12.40
2015,02,24,15,34,12.40
2015,02,24,15,35,12.40
2015,02,24,15,36,12.40
2015,02,24,15,37,12.40
2015,02,24,15,38,12.40
2015,02,24,15,39,12.40
2015,02,24,15,40,12.40
2015,02,24,15,41,12.40
2015,02,24,15,42,12.40
2015,02,24,15,43,12.40
2015,02,24,15,44,12.40
2015,02,24,15,45,12.40
2015,02,24,15,46,12.30
2015,02,24,15,47,12.30
2015,02,24,15,48,12.30
2015,02,24,15,49,12.40
2015,02,24,15,50,12.40
2015,02,24,15,51,12.40
2015,02,24,15,52,12.40
2015,02,24,15,53,12.40
2015,02,24,15,54,12.40
2015,02,24,15,55,12.40
2015,02,24,15,56,12.40
2015,02,24,15,57,12.30
2015,02,24,15,58,12.30
2015,02,24,15,59,12.20
2015,02,24,16,00,12.20
2015,02,24,16,01,12.20
2015,02,24,16,02,12.10
2015,02,24,16,03,12.10
2015,02,24,16,04,12.10
2015,02,24,16,05,12.10
2015,02,24,16,06,12.10
2015,02,24,16,07,12.10
2015,02,24,16,08,12.20
2015,02,24,16,09,12.20
2015,02,24,16,10,12.20
2015,02,24,16,11,12.20
2015,02,24,16,12,12.20
2015,02,24,16,13,12.20
2015,02,24,16,14,12.10
2015,02,24,16,15,12.20
2015,02,24,16,16,12.20
2015,02,24,16,17,12.20
2015,02,24,16,18,12.20
2015,02,24,16,19,12.20
2015,02,24,16,20,12.20
2015,02,24,16,21,12.20
2015,02,24,16,22,12.20
2015,02,24,16,23,12.20
2015,02,24,16,24,12.20
2015,02,24,16,25,12.20
2015,02,24,16,26,12.20
2015,02,24,16,27,12.20
2015,02,24,16,28,12.10
2015,02,24,16,29,12.10
2015,02,24,16,30,12.00
2015,02,24,16,31,12.00
2015,02,24,16,32,12.00
2015,02,24,16,33,12.00
2015,02,24,16,34,11.90
2015,02,24,16,35,11.90
2015,02,24,16,36,11.90
2015,02,24,16,37,11.90
2015,02,24,16,38,11.90
2015,02,24,16,39,11.90
2015,02,24,16,40,11.90
2015,02,24,16,41,11.90
2015,02,24,16,42,11.90
2015,02,24,16,43,11.90
2015,02,24,16,44,11.90
2015,02,24,16,45,11.80
2015,02,24,16,46,11.80
2015,02,24,16,47,11.80
2015,02,24,16,48,11.80
2015,02,24,16,49,11.70
2015,02,24,16,50,11.70
2015,02,24,16,51,11.70
2015,02,24,16,52,11.70
2015,02,24,16,53,11.60
2015,02,24,16,54,11.60
2015,02,24,16,55,11.60
2015,02,24,16,56,11.50
2015,02,24,16,57,11.40
2015,02,24,16,58,11.40
2015,02,24,16,59,11.40
2015,02,24,17,00,11.40
2015,02,24,17,01,11.40
2015,02,24,17,02,11.40
2015,02,24,17,03,11.40
2015,02,24,17,04,11.40
2015,02,24,17,05,11.30
2015,02,24,17,06,11.30
2015,02,24,17,07,11.30
2015,02,24,17,08,11.30
2015,02,24,17,09,11.30
2015,02,24,17,10,11.30
2015,02,24,17,11,11.20
2015,02,24,17,12,11.20
2015,02,24,17,13,11.20
2015,02,24,17,14,11.20
2015,02,24,17,15,11.20
2015,02,24,17,16,11.20
2015,02,24,17,17,11.20
2015,02,24,17,18,11.20
2015,02,24,17,19,11.10
2015,02,24,17,20,11.10
2015,02,24,17,21,11.10
2015,02,24,17,22,11.10
2015,02,24,17,23,11.00
2015,02,24,17,24,11.00
2015,02,24,17,25,10.90
2015,02,24,17,26,10.90
2015,02,24,17,27,10.90
2015,02,24,17,28,10.80
2015,02,24,17,29,10.80
2015,02,24,17,30,10.80
2015,02,24,17,31,10.80
2015,02,24,17,32,10.70
2015,02,24,17,33,10.70
2015,02,24,17,34,10.70
2015,02,24,17,35,10.70
2015,02,24,17,36,10.70
2015,02,24,17,37,10.60
2015,02,24,17,38,10.60
2015,02,24,17,39,10.60
2015,02,24,17,40,10.50
2015,02,24,17,41,10.50
2015,02,24,17,42,10.40
2015,02,24,17,43,10.40
2015,02,24,17,44,10.40
2015,02,24,17,45,10.30
2015,02,24,17,46,10.30
2015,02,24,17,47,10.30
2015,02,24,17,48,10.30
2015,02,24,17,49,10.20
2015,02,24,17,50,10.20
2015,02,24,17,51,10.20
2015,02,24,17,52,10.20
2015,02,24,17,53,10.20
2015,02,24,17,54,10.10
2015,02,24,17,55,10.10
2015,02,24,17,56,10.10
2015,02,24,17,57,10.10
2015,02,24,17,58,10.10
2015,02,24,17,59,10.00
2015,02,24,18,00,10.00
2015,02,24,18,01,10.00
2015,02,24,18,02,10.00
2015,02,24,18,03,9.90
2015,02,24,18,04,9.90
2015,02,24,18,05,9.90
2015,02,24,18,06,9.90
2015,02,24,18,07,9.90
2015,02,24,18,08,9.80
2015,02,24,18,09,9.80
2015,02,24,18,10,9.80
2015,02,24,18,11,9.80
2015,02,24,18,12,9.80
2015,02,24,18,13,9.70
2015,02,24,18,14,9.70